GW6217 Weather Reports


Display with metric or nautical units.
time (UTC)temp
F
wind
direction
speed
MPH
gust
MPH
rain 1hr
in
rain 24hr
in
rain mn
in
humidity
%
barometer
mb
20260505054512 65 92 2.0 8.0 0.00 0.00 0.00 72 1006.2
20260505053015 65 36 2.0 11.0 0.00 0.00 0.00 71 1006.4
20260505051507 65 36 3.0 7.0 0.00 0.00 0.00 72 1006.0
20260505041516 65 79 2.0 8.0 0.00 0.00 0.00 73 1006.6
20260505040008 65 59 3.0 8.0 0.00 0.00 0.00 72 1006.8
20260505034512 66 79 1.0 7.0 0.00 0.00 0.00 71 1007.0
20260505033015 66 43 2.0 8.0 0.00 0.00 0.00 70 1007.2
20260505031517 66 84 1.0 9.0 0.00 0.00 0.00 70 1007.1
20260505030006 67 18 2.0 6.0 0.00 0.00 0.00 68 1007.2
20260505024519 67 96 2.0 6.0 0.00 0.00 0.00 67 1007.0
20260505023003 68 77 2.0 6.0 0.00 0.00 0.00 65 1006.7
20260505021504 68 46 1.0 5.0 0.00 0.00 0.00 65 1006.5
20260505020011 69 80 1.0 7.0 0.00 0.00 0.00 63 1006.4
20260505014506 69 81 2.0 6.0 0.00 0.00 0.00 62 1006.1
20260505013011 70 59 2.0 5.0 0.00 0.00 0.00 61 1005.9
20260505011504 71 65 1.0 9.0 0.00 0.00 0.00 60 1005.7
20260505010004 71 59 2.0 6.0 0.00 0.00 0.00 60 1005.5
20260505004508 72 65 1.0 4.0 0.00 0.00 0.00 59 1005.4
20260505003007 73 75 2.0 6.0 0.00 0.00 0.00 56 1005.3
20260505001512 74 75 1.0 9.0 0.00 0.00 0.00 54 1005.3
20260505000008 75 86 5.0 12.0 0.00 0.00 0.00 51 1005.4
20260504234505 77 56 5.0 11.0 0.00 0.00 0.00 50 1005.5
20260504233007 77 53 3.0 7.0 0.00 0.00 0.00 51 1005.4
20260504231512 77 66 6.0 13.0 0.00 0.00 0.00 51 1005.5
20260504230014 78 69 4.0 12.0 0.00 0.00 0.00 51 1005.6
20260504224506 78 98 2.0 10.0 0.00 0.00 0.00 51 1005.5
20260504223006 78 70 4.0 18.0 0.00 0.00 0.00 50 1005.6
20260504221510 78 58 5.0 15.0 0.00 0.00 0.00 49 1005.6
20260504220015 78 94 6.0 10.0 0.00 0.00 0.00 51 1005.6
20260504214515 78 79 6.0 15.0 0.00 0.00 0.00 52 1005.8
20260504213004 78 56 5.0 15.0 0.00 0.00 0.00 50 1005.9
20260504211508 78 106 5.0 20.0 0.00 0.00 0.00 50 1006.0
20260504210013 78 87 7.0 14.0 0.00 0.00 0.00 51 1006.2
20260504204514 78 96 7.0 16.0 0.00 0.00 0.00 52 1006.3
20260504203027 78 99 7.0 21.0 0.00 0.00 0.00 51 1006.5
20260504201505 78 66 6.0 20.0 0.00 0.00 0.00 51 1006.7
20260504200010 78 59 4.0 16.0 0.00 0.00 0.00 52 1006.8
20260504194515 77 53 6.0 19.0 0.00 0.00 0.00 51 1006.9
20260504193019 78 68 6.0 18.0 0.00 0.00 0.00 50 1007.1
20260504191525 77 129 6.0 18.0 0.00 0.00 0.00 50 1007.2
20260504190008 77 14 6.0 15.0 0.00 0.00 0.00 51 1007.4
20260504184514 77 71 7.0 18.0 0.00 0.00 0.00 51 1007.3
20260504183017 76 67 9.0 21.0 0.00 0.00 0.00 50 1007.4
20260504181504 76 94 11.0 18.0 0.00 0.00 0.00 52 1007.3
20260504180008 76 60 5.0 18.0 0.00 0.00 0.00 53 1007.5
20260504174508 76 84 3.0 15.0 0.00 0.00 0.00 53 1007.5
20260504173003 76 153 5.0 16.0 0.00 0.00 0.00 54 1007.6
20260504171504 75 68 5.0 21.0 0.00 0.00 0.00 54 1007.6
20260504081504 61 77 1.0 8.0 0.00 0.00 0.00 67 1010.4